This is the latest recevied weather packets stored in our database for station/object SQ6XL-13. If no packets are shown the sender has not sent any weather packets the latest 1 day(s).
| Time | Temp. | Humidity | Pressure | Rain* | Wind** | Luminosity | Snow |
|---|---|---|---|---|---|---|---|
| 1836274478 | 17.22° C | 89% | 1022.4 hPa | 0 mm | - | - | - |
| 1836274315 | 17.78° C | 83% | 1022.3 hPa | 0 mm | - | - | - |
| 1836273951 | 16.11° C | 90% | 1022.7 hPa | 0 mm | - | - | - |
| 1778019192 | 13.33° C | 89% | 1006.4 hPa | 0 mm | - | - | - |
| 1778018612 | 13.89° C | 87% | 1006.6 hPa | 0 mm | - | - | - |
| 1778018102 | 13.89° C | 85% | 1006.6 hPa | 0 mm | - | - | - |
| 1778017517 | 14.44° C | 85% | 1006.6 hPa | 0 mm | - | - | - |
| 1778017027 | 14.44° C | 85% | 1006.7 hPa | 0 mm | - | - | - |
| 1778016532 | 14.44° C | 85% | 1006.7 hPa | 0 mm | - | - | - |
| 1778015972 | 14.44° C | 85% | 1006.9 hPa | 0 mm | - | - | - |
| 1778015397 | 15° C | 85% | 1006.9 hPa | 0 mm | - | - | - |
| 1778014801 | 15° C | 84% | 1006.8 hPa | 0 mm | - | - | - |
| 1778014247 | 15.56° C | 84% | 1006.9 hPa | 0 mm | - | - | - |
| 1778013757 | 15.56° C | 84% | 1006.9 hPa | 0 mm | - | - | - |
| 1778013197 | 15.56° C | 84% | 1006.9 hPa | 0 mm | - | - | - |
| 1778012717 | 16.11° C | 85% | 1006.8 hPa | 0 mm | - | - | - |
| 1778012127 | 16.11° C | 84% | 1007 hPa | 0 mm | - | - | - |
| 1778011632 | 16.11° C | 84% | 1006.9 hPa | 0 mm | - | - | - |
| 1778011052 | 16.11° C | 85% | 1006.7 hPa | 0 mm | - | - | - |
| 1778010552 | 16.11° C | 84% | 1006.7 hPa | 0 mm | - | - | - |
| 1778009987 | 16.11° C | 84% | 1006.6 hPa | 0 mm | - | - | - |
| 1778009457 | 16.11° C | 84% | 1006.7 hPa | 0 mm | - | - | - |
| 1778008912 | 16.67° C | 83% | 1006.7 hPa | 0 mm | - | - | - |
| 1778008342 | 16.67° C | 82% | 1006.6 hPa | 0 mm | - | - | - |
| 1778007804 | 16.67° C | 81% | 1006.6 hPa | 0 mm | - | - | - |
* Rain latest hour (hover to see other rain measurements)
** Current wind speed in m/s (hover to see current wind gust speed)